Regional Weather Roundup
Issued by NWS

Home | Current Version | Previous Version | Text Only | Print | Product List | Glossary Off
Versions: 1 2 3 4 5 6 7 8 9 10 11 12 13 14 15 16 17 18 19 20 21 22 23 24 25 26 27 28 29 30 31 32 33 34 35 36 37 38 39 40 41 42 43 44 45 46 47 48 49 50

838
ASUS45 KBOI 310710
RWRID

IDAHO REGIONAL WEATHER ROUNDUP
NATIONAL WEATHER SERVICE BOISE ID
100 AM MDT WED AUG 31 2016

NOTE: "FAIR" INDICATES FEW OR NO CLOUDS BELOW 12000 FEET
WITH NO SIGNIFICANT WEATHER AND/OR OBSTRUCTIONS TO VISIBILITY

IDZ012-014-310800-
SOUTHWEST IDAHO


CITY           SKY/WX    TMP DP  RH WIND       PRES   REMARKS
BOISE          PTCLDY    67  42  40 S6        29.88F
CALDWELL       PTCLDY    61  49  64 SW3       29.88S
MOUNTAIN HOME  PTCLDY    65  38  36 W3        29.89S
$$

IDZ016-017-310800-
SOUTHCENTRAL IDAHO


CITY           SKY/WX    TMP DP  RH WIND       PRES   REMARKS
BURLEY         CLEAR     61  43  51 E3        29.97S
JEROME         CLEAR     64  39  39 CALM      29.98S
TWIN FALLS     CLEAR     72  25  17 SW7       29.98R
$$

IDZ019>023-310800-
SOUTHEAST IDAHO


CITY           SKY/WX    TMP DP  RH WIND       PRES   REMARKS
IDAHO FALLS    CLOUDY    55  41  59 NW5       30.08R
POCATELLO      CLOUDY    60  34  37 N7        30.04R
REXBURG        CLOUDY    59  40  49 NE3       30.09S
$$

IDZ006-010-011-018-031-032-310800-
CENTRAL IDAHO MOUNTAINS


CITY           SKY/WX    TMP DP  RH WIND       PRES   REMARKS
MCCALL         CLEAR     60  38  43 N5        30.07S
HAILEY         MOCLDY    63  36  36 NW5       30.12R
STANLEY          N/A     55  27  34 S3        30.18S
SALMON         CLEAR    N/A N/A N/A MISG        N/A
CHALLIS        PTCLDY    65  32  29 CALM      30.07S
$$

IDZ002-004-006-007-026-310800-
NORTHERN IDAHO


CITY           SKY/WX    TMP DP  RH WIND       PRES   REMARKS
LEWISTON       PTCLDY    67  41  38 S3        29.93S
LOWELL           N/A     62  53  72 N5        29.96R
COEUR D`ALENE  CLEAR     64  45  48 S6        29.93S
MULLAN PASS    CLEAR     63  33  32 NW5       30.14R
$$




USA.gov is the U.S. government's official web portal to all federal, state and local government web resources and services.